| time (UTC) | temp F | wind direction | speed knots | gust knots | rain 1hr in | rain 24hr in | rain mn in | humidity % | barometer mb |
| 20260506023545 | 0 | 23 | 0.0 | 0.9 | 0.00 | 0.07 | 0.00 | 86 | 1013.4 |
| 20260506023211 | 0 | 0.0 | 0.0 | 0.00 | 0.07 | 0.00 | 86 | 1013.5 | |
| 20260506021540 | 0 | 23 | 0.9 | 2.6 | 0.00 | 0.07 | 0.00 | 86 | 1013.4 |
| 20260506020609 | 0 | 0.0 | 0.0 | 0.00 | 0.07 | 0.00 | 86 | 1013.4 | |
| 20260506015606 | 0 | 135 | 0.9 | 0.9 | 0.00 | 0.07 | 0.00 | 86 | 1013.4 |
| 20260506014706 | 0 | 135 | 0.9 | 2.6 | 0.00 | 0.07 | 0.00 | 86 | 1013.4 |
| 20260506013632 | 0 | 135 | 0.0 | 0.9 | 0.00 | 0.07 | 0.00 | 86 | 1013.4 |
| 20260506012532 | 0 | 135 | 0.9 | 0.9 | 0.00 | 0.07 | 0.00 | 86 | 1013.4 |
| 20260506011530 | 0 | 158 | 0.9 | 2.6 | 0.00 | 0.07 | 0.00 | 86 | 1013.4 |
| 20260506010529 | 0 | 158 | 0.9 | 2.6 | 0.00 | 0.07 | 0.00 | 86 | 1013.5 |
| 20260506005529 | 0 | 176 | 1.7 | 4.3 | 0.00 | 0.07 | 0.00 | 86 | 1013.4 |
| 20260506004528 | 0 | 240 | 1.7 | 4.3 | 0.00 | 0.07 | 0.00 | 86 | 1013.5 |
| 20260506003654 | 0 | 244 | 2.6 | 7.0 | 0.00 | 0.07 | 0.00 | 86 | 1013.5 |
| 20260506002553 | 0 | 222 | 1.7 | 6.1 | 0.00 | 0.07 | 0.00 | 86 | 1013.5 |
| 20260506002023 | 0 | 338 | 0.0 | 0.9 | 0.00 | 0.07 | 0.00 | 86 | 1013.4 |
| 20260506000822 | 0 | 0.0 | 0.0 | 0.00 | 0.07 | 0.00 | 86 | 1013.5 | |
| 20260505235612 | 0 | 0.0 | 0.0 | 0.00 | 0.07 | 0.00 | 86 | 1013.3 | |
| 20260505234541 | 0 | 338 | 0.0 | 0.9 | 0.00 | 0.07 | 0.00 | 86 | 1013.4 |
| 20260505233642 | 0 | 338 | 0.9 | 0.9 | 0.00 | 0.07 | 0.00 | 86 | 1013.3 |
| 20260505232534 | 0 | 0.0 | 0.0 | 0.00 | 0.07 | 0.00 | 86 | 1013.3 | |
| 20260505231603 | 0 | 338 | 0.0 | 0.9 | 0.00 | 0.07 | 0.00 | 86 | 1013.4 |
| 20260505230632 | 0 | 0.0 | 0.0 | 0.00 | 0.07 | 0.00 | 86 | 1013.5 | |
| 20260505225600 | 0 | 0.0 | 0.0 | 0.00 | 0.07 | 0.00 | 86 | 1013.5 | |
| 20260505224558 | 0 | 0.0 | 0.0 | 0.00 | 0.07 | 0.00 | 86 | 1013.5 | |
| 20260505223558 | 0 | 0.0 | 0.0 | 0.00 | 0.07 | 0.00 | 86 | 1013.6 | |
| 20260505222824 | 0 | 0.0 | 0.0 | 0.00 | 0.07 | 0.00 | 86 | 1013.5 | |
| 20260505221821 | 0 | 0.0 | 0.0 | 0.00 | 0.07 | 0.00 | 86 | 1013.5 | |
| 20260505220619 | 0 | 0.0 | 0.0 | 0.00 | 0.07 | 0.00 | 86 | 1013.5 | |
| 20260505215718 | 0 | 0.0 | 0.0 | 0.00 | 0.07 | 0.07 | 86 | 1013.4 | |
| 20260505215015 | 0 | 0.0 | 0.0 | 0.00 | 0.07 | 0.07 | 86 | 1013.3 | |
| 20260505213045 | 0 | 0.0 | 0.0 | 0.00 | 0.07 | 0.07 | 86 | 1013.3 | |
| 20260505212914 | 0 | 315 | 0.0 | 0.9 | 0.00 | 0.07 | 0.07 | 86 | 1013.2 |
| 20260505211044 | 0 | 336 | 0.0 | 2.6 | 0.00 | 0.07 | 0.07 | 86 | 1013.2 |
| 20260505210043 | 0 | 326 | 0.9 | 2.6 | 0.00 | 0.07 | 0.07 | 86 | 1013.2 |
| 20260505205536 | 0 | 333 | 0.9 | 2.6 | 0.00 | 0.07 | 0.07 | 86 | 1013.2 |
| 20260505204533 | 0 | 328 | 0.9 | 3.5 | 0.00 | 0.07 | 0.07 | 86 | 1013.1 |
| 20260505203533 | 0 | 315 | 0.0 | 2.6 | 0.00 | 0.07 | 0.07 | 86 | 1013.2 |
| 20260505202530 | 0 | 320 | 0.0 | 2.6 | 0.00 | 0.07 | 0.07 | 86 | 1013.2 |
| 20260505201528 | 0 | 320 | 0.9 | 3.5 | 0.00 | 0.07 | 0.07 | 86 | 1013.2 |
| 20260505200525 | 0 | 314 | 0.9 | 3.5 | 0.00 | 0.07 | 0.07 | 86 | 1013.2 |
| 20260505195554 | 0 | 324 | 0.9 | 4.3 | 0.00 | 0.07 | 0.07 | 86 | 1013.1 |
| 20260505194554 | 0 | 320 | 0.9 | 3.5 | 0.00 | 0.07 | 0.07 | 86 | 1013.1 |
| 20260505193523 | 0 | 318 | 1.7 | 4.3 | 0.00 | 0.07 | 0.07 | 86 | 1013.1 |
| 20260505192521 | 0 | 304 | 1.7 | 6.1 | 0.00 | 0.07 | 0.07 | 86 | 1012.9 |
| 20260505191521 | 0 | 323 | 1.7 | 3.5 | 0.00 | 0.07 | 0.07 | 86 | 1012.8 |
| 20260505190549 | 0 | 308 | 2.6 | 7.0 | 0.00 | 0.07 | 0.07 | 86 | 1012.7 |
| 20260505185549 | 0 | 302 | 4.3 | 7.0 | 0.00 | 0.07 | 0.07 | 86 | 1012.6 |
| 20260505184542 | 0 | 311 | 2.6 | 7.0 | 0.00 | 0.07 | 0.07 | 86 | 1012.6 |
| 20260505183540 | 0 | 316 | 2.6 | 6.1 | 0.00 | 0.07 | 0.07 | 86 | 1012.5 |
| 20260505182539 | 0 | 306 | 4.3 | 8.7 | 0.00 | 0.07 | 0.07 | 86 | 1012.5 |
| 20260505181539 | 0 | 300 | 3.5 | 9.6 | 0.00 | 0.07 | 0.07 | 86 | 1012.4 |
| 20260505180538 | 0 | 316 | 2.6 | 8.7 | 0.00 | 0.07 | 0.07 | 86 | 1012.4 |
| 20260505175535 | 0 | 323 | 1.7 | 7.0 | 0.00 | 0.07 | 0.07 | 86 | 1012.4 |
| 20260505174534 | 0 | 305 | 1.7 | 3.5 | 0.00 | 0.07 | 0.07 | 86 | 1012.4 |
| 20260505173531 | 0 | 286 | 2.6 | 6.1 | 0.00 | 0.07 | 0.07 | 86 | 1012.4 |
| 20260505172530 | 0 | 288 | 2.6 | 9.6 | 0.00 | 0.07 | 0.07 | 86 | 1012.4 |
| 20260505171529 | 0 | 296 | 2.6 | 6.1 | 0.00 | 0.07 | 0.07 | 86 | 1012.3 |
| 20260505170529 | 0 | 267 | 3.5 | 8.7 | 0.00 | 0.07 | 0.07 | 86 | 1012.3 |
| 20260505165525 | 0 | 286 | 5.2 | 9.6 | 0.00 | 0.07 | 0.07 | 86 | 1012.3 |
| 20260505164524 | 0 | 277 | 5.2 | 10.4 | 0.00 | 0.07 | 0.07 | 86 | 1012.3 |
| 20260505163554 | 0 | 272 | 4.3 | 12.2 | 0.00 | 0.07 | 0.07 | 86 | 1012.3 |
| 20260505162553 | 0 | 275 | 4.3 | 9.6 | 0.00 | 0.07 | 0.07 | 86 | 1012.3 |
| 20260505161522 | 0 | 299 | 4.3 | 12.2 | 0.00 | 0.07 | 0.07 | 86 | 1012.2 |
| 20260505160621 | 0 | 277 | 4.3 | 8.7 | 0.00 | 0.07 | 0.07 | 86 | 1012.2 |
| 20260505152546 | 0 | 271 | 4.3 | 8.7 | 0.00 | 0.07 | 0.07 | 86 | 1012.2 |
| 20260505151516 | 0 | 279 | 7.0 | 12.2 | 0.00 | 0.07 | 0.07 | 86 | 1012.2 |
| 20260505150545 | 0 | 274 | 3.5 | 6.1 | 0.00 | 0.07 | 0.07 | 86 | 1012.2 |
| 20260505140540 | 0 | 279 | 2.6 | 6.1 | 0.02 | 0.07 | 0.07 | 86 | 1012.3 |
| 20260505124629 | 0 | 289 | 3.5 | 9.6 | 0.00 | 0.06 | 0.05 | 86 | 1012.2 |
| 20260505123525 | 0 | 278 | 5.2 | 12.2 | 0.00 | 0.08 | 0.05 | 86 | 1012.2 |
| 20260505122525 | 0 | 268 | 7.8 | 13.9 | 0.00 | 0.10 | 0.05 | 86 | 1012.2 |
| 20260505121554 | 0 | 263 | 6.1 | 12.2 | 0.00 | 0.14 | 0.05 | 86 | 1012.1 |
| 20260505120551 | 0 | 241 | 4.3 | 9.6 | 0.00 | 0.18 | 0.05 | 86 | 1012.1 |
| 20260505115520 | 0 | 223 | 4.3 | 7.0 | 0.00 | 0.21 | 0.05 | 86 | 1012.1 |
| 20260505114519 | 0 | 198 | 4.3 | 13.0 | 0.00 | 0.23 | 0.05 | 86 | 1012.1 |
| 20260505113549 | 0 | 208 | 5.2 | 10.4 | 0.00 | 0.25 | 0.05 | 86 | 1012.1 |
| 20260505112548 | 0 | 199 | 6.1 | 12.2 | 0.00 | 0.25 | 0.05 | 86 | 1012.1 |
| 20260505111547 | 0 | 255 | 4.3 | 8.7 | 0.00 | 0.26 | 0.05 | 86 | 1012.1 |
| 20260505110545 | 0 | 252 | 3.5 | 9.6 | 0.00 | 0.27 | 0.05 | 86 | 1012.1 |
| 20260505101542 | 0 | 272 | 3.5 | 6.1 | 0.01 | 0.27 | 0.05 | 86 | 1012.0 |
| 20260505100541 | 0 | 276 | 3.5 | 6.1 | 0.01 | 0.27 | 0.05 | 86 | 1011.9 |
| 20260505095540 | 0 | 273 | 3.5 | 8.7 | 0.01 | 0.27 | 0.05 | 86 | 1011.9 |
| 20260505094537 | 0 | 266 | 3.5 | 7.0 | 0.01 | 0.26 | 0.04 | 86 | 1012.0 |
| 20260505093636 | 0 | 271 | 5.2 | 9.6 | 0.01 | 0.26 | 0.04 | 86 | 1012.0 |
| 20260505092533 | 0 | 273 | 5.2 | 12.2 | 0.01 | 0.26 | 0.04 | 86 | 1011.9 |
| 20260505091529 | 0 | 291 | 1.7 | 4.3 | 0.02 | 0.26 | 0.04 | 86 | 1011.7 |
| 20260505090528 | 0 | 317 | 2.6 | 7.0 | 0.03 | 0.26 | 0.04 | 86 | 1011.8 |
| 20260505085557 | 0 | 313 | 1.7 | 4.3 | 0.03 | 0.26 | 0.04 | 86 | 1011.8 |
| 20260505084553 | 0 | 68 | 0.0 | 0.9 | 0.02 | 0.25 | 0.03 | 86 | 1011.6 |
| 20260505083623 | 0 | 68 | 0.0 | 0.9 | 0.02 | 0.25 | 0.03 | 86 | 1011.5 |
| 20260505082521 | 0 | 85 | 0.9 | 3.5 | 0.02 | 0.25 | 0.03 | 86 | 1011.4 |
| 20260505081551 | 0 | 117 | 0.9 | 2.6 | 0.01 | 0.24 | 0.02 | 86 | 1011.5 |
| 20260505080647 | 0 | 143 | 1.7 | 3.5 | 0.00 | 0.23 | 0.01 | 86 | 1011.7 |
| 20260505075547 | 0 | 188 | 2.6 | 8.7 | 0.00 | 0.23 | 0.01 | 86 | 1011.6 |
| 20260505074543 | 0 | 158 | 1.7 | 4.3 | 0.00 | 0.23 | 0.01 | 86 | 1011.3 |
| 20260505073642 | 0 | 129 | 1.7 | 3.5 | 0.00 | 0.23 | 0.01 | 86 | 1011.3 |
| 20260505072538 | 0 | 140 | 2.6 | 4.3 | 0.01 | 0.23 | 0.01 | 86 | 1011.4 |
| 20260505071538 | 0 | 184 | 2.6 | 6.1 | 0.01 | 0.23 | 0.01 | 86 | 1011.6 |
| 20260505070737 | 0 | 169 | 1.7 | 3.5 | 0.01 | 0.23 | 0.01 | 86 | 1011.5 |
| 20260505065536 | 0 | 143 | 1.7 | 3.5 | 0.01 | 0.23 | 0.01 | 86 | 1011.5 |
| 20260505064605 | 0 | 129 | 1.7 | 3.5 | 0.01 | 0.23 | 0.01 | 86 | 1011.5 |
| 20260505063534 | 0 | 115 | 0.9 | 2.6 | 0.01 | 0.23 | 0.01 | 86 | 1011.5 |
| 20260505062533 | 0 | 135 | 1.7 | 3.5 | 0.00 | 0.22 | 0.00 | 86 | 1011.6 |
| 20260505061532 | 0 | 134 | 1.7 | 2.6 | 0.00 | 0.22 | 0.00 | 86 | 1011.5 |
| 20260505060531 | 0 | 138 | 0.9 | 4.3 | 0.00 | 0.22 | 0.00 | 86 | 1011.6 |
| 20260505055527 | 0 | 146 | 0.9 | 2.6 | 0.00 | 0.22 | 0.00 | 86 | 1011.6 |
| 20260505054556 | 0 | 146 | 0.0 | 0.9 | 0.00 | 0.22 | 0.00 | 86 | 1011.5 |
| 20260505053653 | 0 | 158 | 0.0 | 0.9 | 0.00 | 0.22 | 0.00 | 86 | 1011.5 |
| 20260505052621 | 0 | 45 | 0.9 | 0.9 | 0.00 | 0.22 | 0.00 | 86 | 1011.5 |
| 20260505051520 | 0 | 45 | 0.0 | 0.9 | 0.00 | 0.22 | 0.00 | 86 | 1011.6 |
| 20260505050619 | 0 | 45 | 0.0 | 0.9 | 0.00 | 0.22 | 0.00 | 86 | 1011.5 |
| 20260505041643 | 0 | 135 | 0.0 | 0.9 | 0.00 | 0.23 | 0.00 | 86 | 1011.3 |
| 20260505040911 | 0 | 135 | 0.0 | 0.9 | 0.00 | 0.23 | 0.00 | 86 | 1011.3 |
| 20260505035610 | 0 | 0.0 | 0.0 | 0.00 | 0.23 | 0.00 | 86 | 1011.3 | |
| 20260505034539 | 0 | 135 | 0.0 | 0.9 | 0.00 | 0.23 | 0.00 | 86 | 1011.3 |
| 20260505033938 | 0 | 135 | 0.9 | 0.9 | 0.00 | 0.23 | 0.00 | 86 | 1011.3 |
| 20260505032608 | 0 | 0.0 | 0.0 | 0.00 | 0.23 | 0.00 | 86 | 1011.1 | |
| 20260505031637 | 0 | 0.0 | 0.0 | 0.00 | 0.23 | 0.00 | 86 | 1011.3 | |
| 20260505030806 | 0 | 0.0 | 0.0 | 0.00 | 0.23 | 0.00 | 86 | 1011.3 | |
| 20260505025534 | 0 | 0.0 | 0.0 | 0.00 | 0.24 | 0.00 | 86 | 1011.3 | |
| 20260505024659 | 0 | 200 | 0.9 | 2.6 | 0.00 | 0.24 | 0.00 | 86 | 1011.2 |